This is the latest recevied weather packets stored in our database for station/object HS2LXA-WX. If no packets are shown the sender has not sent any weather packets the latest 10 day(s).
| Time | Temp. | Humidity | Pressure | Rain* | Wind** | Luminosity | Snow |
|---|---|---|---|---|---|---|---|
| 1777977339 | 31.11° C | 86% | 1013.2 hPa | 0 mm | - | - | - |
| 1777976508 | 31.67° C | 86% | 1013.1 hPa | 0 mm | - | - | - |
| 1777975862 | 31.67° C | 86% | 1013.2 hPa | 0 mm | - | - | - |
| 1777975262 | 31.11° C | 89% | 1013.2 hPa | 0 mm | - | - | - |
| 1777974662 | 31.11° C | 89% | 1013.2 hPa | 0 mm | - | - | - |
| 1777974062 | 31.11° C | 89% | 1013.2 hPa | 0 mm | - | - | - |
| 1777973462 | 31.11° C | 89% | 1013.1 hPa | 0 mm | - | - | - |
| 1777972858 | 31.11° C | 93% | 1013.1 hPa | 0 mm | - | - | - |
| 1777971086 | 30° C | 93% | 1013.1 hPa | 0 mm | - | - | - |
| 1777970484 | 30° C | 94% | 1013.1 hPa | 0 mm | - | - | - |
| 1777969884 | 30° C | 93% | 1013.1 hPa | 0 mm | - | - | - |
| 1777969283 | 30° C | 91% | 1013.2 hPa | 0 mm | - | - | - |
| 1777968684 | 30° C | 89% | 1013.2 hPa | 0 mm | - | - | - |
| 1777968083 | 30° C | 89% | 1013.1 hPa | 0 mm | - | - | - |
| 1777967483 | 30.56° C | 89% | 1013.1 hPa | 1.02 mm | - | - | - |
| 1777966883 | 30.56° C | 88% | 1013.1 hPa | 1.02 mm | - | - | - |
| 1777966283 | 30.56° C | 86% | 1013.1 hPa | 1.02 mm | - | - | - |
| 1777965683 | 30.56° C | 83% | 1013.2 hPa | 0.76 mm | - | - | - |
| 1777965083 | 31.11° C | 82% | 1013.1 hPa | 0.51 mm | - | - | - |
| 1777964483 | 31.67° C | 75% | 1013.2 hPa | 0 mm | - | - | - |
| 1777963883 | 32.22° C | 70% | 1013.1 hPa | 0 mm | - | - | - |
| 1777963282 | 32.22° C | 68% | 1013.1 hPa | 0 mm | - | - | - |
| 1777962682 | 32.78° C | 66% | 1013.2 hPa | 0 mm | - | - | - |
| 1777962082 | 32.78° C | 68% | 1013.1 hPa | 0 mm | - | - | - |
| 1777961448 | 33.33° C | 65% | 1013.2 hPa | 0 mm | - | - | - |
* Rain latest hour (hover to see other rain measurements)
** Current wind speed in m/s (hover to see current wind gust speed)